CW5521 Weather Reports


time (UTC)temp
C
wind
direction
speed
KPH
gust
KPH
rain 1hr
cm
rain 24hr
cm
rain mn
cm
humidity
%
barometer
mb
20260906131624 21 78 0.0 14.5 0.00 0.00 0.00 93 1017.1
20260906130630 21 77 0.0 9.7 0.00 0.00 0.00 93 1017.3
20260906125632 21 135 0.0 3.2 0.00 0.00 0.00 92 1017.3
20260906124632 21 145 0.0 6.4 0.00 0.00 0.00 92 1017.1
20260906123637 21 65 0.0 11.3 0.00 0.00 0.00 92 1016.8
20260906122633 21 97 1.6 11.3 0.00 0.00 0.00 93 1016.6
20260906121617 21 129 1.6 8.0 0.00 0.00 0.00 92 1016.4
20260906115458 21 109 0.0 8.0 0.00 0.00 0.00 93 1016.1
20260906114504 21 355 0.0 8.0 0.00 0.00 0.00 93 1015.8
20260906113508 21 163 0.0 8.0 0.00 0.00 0.00 93 1015.7
20260906112516 21 120 0.0 1.6 0.00 0.00 0.00 93 1015.5
20260906111507 21 180 0.0 6.4 0.00 0.00 0.00 92 1015.2
20260906110442 21 127 1.6 6.4 0.00 0.00 0.00 92 1015.2
20260906105438 21 136 0.0 6.4 0.00 0.00 0.00 92 1015.3
20260906104434 21 132 0.0 6.4 0.00 0.00 0.00 92 1015.2
20260906102333 21 69 0.0 6.4 0.00 0.00 0.00 92 1014.9
20260906101351 21 129 0.0 9.7 0.00 0.00 0.00 92 1014.7
20260906095159 21 143 0.0 8.0 0.00 0.00 0.00 92 1014.8
20260906093036 21 57 0.0 4.8 0.00 0.00 0.00 92 1014.7
20260906090917 21 121 0.0 4.8 0.00 0.00 0.00 92 1014.8
20260906085921 21 141 0.0 3.2 0.00 0.00 0.00 92 1014.7
20260906084910 21 104 0.0 3.2 0.00 0.00 0.00 92 1014.7
20260906083911 21 152 0.0 4.8 0.00 0.00 0.00 92 1014.8
20260906082921 21 96 0.0 4.8 0.00 0.00 0.00 92 1014.8
20260906081853 21 86 0.0 4.8 0.00 0.00 0.00 92 1014.9
20260906080914 21 138 0.0 3.2 0.00 0.00 0.00 92 1015.1
20260906075854 21 65 0.0 1.6 0.00 0.00 0.00 92 1015.1
20260906074905 21 198 0.0 0.0 0.00 0.00 0.00 92 1015.0
20260906073925 21 198 0.0 0.0 0.00 0.00 0.00 92 1015.1
20260906072859 21 65 0.0 1.6 0.00 0.00 0.00 92 1015.2
20260906071834 21 76 0.0 1.6 0.00 0.00 0.00 92 1015.1
20260906065731 21 86 0.0 0.0 0.00 0.00 0.00 91 1015.2
20260906062505 21 138 0.0 3.2 0.00 0.00 0.00 91 1015.3
20260906061507 21 151 0.0 3.2 0.00 0.00 0.00 91 1015.4
20260906060511 21 121 0.0 11.3 0.00 0.00 0.00 91 1015.4
20260906055440 21 115 0.0 4.8 0.00 0.00 0.00 91 1015.3
20260906054423 21 107 0.0 1.6 0.00 0.00 0.00 91 1015.2
20260906053357 22 14 0.0 6.4 0.00 0.00 0.00 91 1015.0
20260906052403 22 90 0.0 6.4 0.00 0.00 0.00 91 1015.0
20260906050228 22 126 1.6 12.9 0.00 0.00 0.00 90 1014.9
20260906045245 22 119 1.6 12.9 0.00 0.00 0.00 90 1014.7
20260906041953 22 123 1.6 11.3 0.00 0.00 0.00 90 1014.1
20260906040923 23 142 1.6 11.3 0.00 0.00 0.00 89 1014.0
20260906035935 23 138 1.6 8.0 0.00 0.00 0.00 89 1013.9
20260906033737 23 84 0.0 4.8 0.00 0.00 0.00 89 1013.8
20260906032723 23 100 0.0 0.0 0.00 0.00 0.00 88 1013.6
20260906031710 23 101 0.0 3.2 0.00 0.00 0.00 88 1013.6
20260906030655 23 142 0.0 3.2 0.00 0.00 0.00 88 1013.4
20260906025659 23 153 0.0 6.4 0.00 0.00 0.00 87 1013.5
20260906023545 24 127 0.0 4.8 0.00 0.00 0.00 86 1013.4
20260906021355 24 119 0.0 9.7 0.00 0.00 0.00 85 1013.4
20260906014135 25 138 0.0 3.2 0.00 0.00 0.00 84 1013.2
20260906012012 25 153 1.6 12.9 0.00 0.00 0.00 83 1012.7
20260906011020 26 130 1.6 8.0 0.00 0.00 0.00 83 1012.7
20260906004845 26 173 1.6 14.5 0.00 0.00 0.00 82 1012.4
20260906003828 26 134 1.6 14.5 0.00 0.00 0.00 80 1012.3
20260906001657 27 150 1.6 9.7 0.00 0.00 0.00 78 1012.2
20260906000720 28 117 0.0 9.7 0.00 0.00 0.00 77 1012.3
20260905235726 28 46 1.6 8.0 0.00 0.00 0.00 78 1012.1
20260905234747 28 333 0.0 8.0 0.00 0.00 0.00 77 1012.1
20260905233736 28 109 1.6 9.7 0.00 0.00 0.00 77 1012.0
20260905232749 29 107 1.6 9.7 0.00 0.00 0.00 77 1011.9
20260905231750 29 175 0.0 9.7 0.00 0.00 0.00 77 1011.8
20260905230811 30 73 1.6 9.7 0.00 0.00 0.00 76 1011.6
20260905225756 30 71 0.0 9.7 0.00 0.00 0.00 76 1011.5
20260905224746 30 175 1.6 11.3 0.00 0.00 0.00 75 1011.5
20260905223715 31 67 0.0 11.3 0.00 0.00 0.00 74 1011.7
20260905222732 31 32 0.0 4.8 0.00 0.00 0.00 73 1011.7
20260905221743 31 82 0.0 12.9 0.00 0.00 0.00 74 1011.6
20260905215618 31 244 1.6 11.3 0.00 0.00 0.00 72 1011.5
20260905214542 31 345 1.6 11.3 0.00 0.00 0.00 71 1011.5
20260905212343 32 11 1.6 12.9 0.00 0.00 0.00 70 1011.4
20260905211321 32 350 1.6 12.9 0.00 0.00 0.00 72 1011.4
20260905210244 32 14 3.2 12.9 0.00 0.00 0.00 70 1011.3
20260905205222 32 18 0.0 4.8 0.00 0.00 0.00 71 1011.5
20260905203130 32 58 1.6 11.3 0.00 0.00 0.00 70 1011.6
20260905201019 32 79 1.6 14.5 0.00 0.00 0.00 72 1011.7
20260905200018 32 324 1.6 14.5 0.00 0.00 0.00 70 1011.8
20260905195032 32 28 1.6 6.4 0.00 0.00 0.00 69 1011.8
20260905194041 33 326 1.6 11.3 0.00 0.00 0.00 68 1011.8
20260905193032 32 81 1.6 11.3 0.00 0.00 0.00 72 1011.8
20260905192038 33 40 0.0 8.0 0.00 0.00 0.00 68 1011.9
20260905191100 33 333 1.6 4.8 0.00 0.00 0.00 66 1011.9
20260905184939 32 351 1.6 9.7 0.00 0.00 0.00 70 1012.0
20260905183928 33 103 1.6 12.9 0.00 0.00 0.00 69 1012.2
20260905182907 33 9 3.2 12.9 0.00 0.00 0.00 65 1012.3
20260905180710 33 75 0.0 11.3 0.00 0.00 0.00 66 1012.4
20260905175638 34 350 3.2 11.3 0.00 0.00 0.00 63 1012.4
20260905174627 33 293 0.0 9.7 0.00 0.00 0.00 66 1012.4
20260905172451 33 276 0.0 8.0 0.00 0.00 0.00 68 1012.5
20260905171447 32 134 0.0 8.0 0.00 0.00 0.00 69 1012.6
20260905170443 32 76 0.0 8.0 0.00 0.00 0.00 72 1012.7
20260905165455 32 150 1.6 8.0 0.00 0.00 0.00 70 1012.7
20260905164438 31 136 0.0 9.7 0.00 0.00 0.00 72 1012.7
20260905163412 31 127 0.0 4.8 0.00 0.00 0.00 73 1012.8
20260905161303 31 36 1.6 6.4 0.00 0.00 0.00 74 1012.8
20260905160238 31 45 0.0 6.4 0.00 0.00 0.00 75 1012.8
20260905155211 30 63 1.6 6.4 0.00 0.00 0.00 75 1012.8
20260905154226 30 0 0.0 6.4 0.00 0.00 0.00 76 1012.8
20260905152106 29 42 1.6 8.0 0.00 0.00 0.00 76 1012.6
20260905151040 29 9 1.6 6.4 0.00 0.00 0.00 76 1012.6
20260905150011 28 34 1.6 8.0 0.00 0.00 0.00 77 1012.5
20260905145028 28 0 3.2 9.7 0.00 0.00 0.00 77 1012.5
20260905144042 28 271 3.2 12.9 0.00 0.00 0.00 77 1012.5
20260905143026 28 276 4.8 12.9 0.00 0.00 0.00 77 1012.3
20260905142038 28 265 3.2 11.3 0.00 0.00 0.00 79 1012.3
20260905141017 27 317 1.6 9.7 0.00 0.00 0.00 79 1012.2
20260905140036 27 313 1.6 8.0 0.00 0.00 0.00 79 1012.1
20260905133926 26 267 1.6 6.4 0.00 0.00 0.00 82 1012.1
20260905132914 26 270 0.0 3.2 0.00 0.00 0.00 84 1012.0
20260905131935 26 292 0.0 3.2 0.00 0.00 0.00 84 1012.0